This demonstration page uses our WeatherBlox Daily Observations layout. Learn more.

Left ArrowRight Arrow

41.12389, -100.76542

Hourly Observations for May 13, 2017

Temp ( °F °C ) Dew Point ( °F °C ) Humidity (%) Winds ( mph kmh ) Pressure ( in mb ) Visibility ( mi km ) Precip ( " mm )
12:53 am 00:53 Clear 54 12.2 41 5 62 62 SSE 7 11 29.93 1014 10 16 0.00 0.00
1:53 am 01:53 Clear 55 12.8 41 5 59 59 SSE 8 13 29.92 1013 10 16 0.00 0.00
2:53 am 02:53 Clear 54 12.2 41 5 62 62 S 9 15 29.91 1013 10 16 0.00 0.00
3:53 am 03:53 Clear 50 10 40 4.4 68 68 SE 6 9 29.90 1013 10 16 0.00 0.00
4:53 am 04:53 Clear 50 10 40 4.4 68 68 S 7 11 29.89 1012 10 16 0.00 0.00
5:53 am 05:53 Clear 45 7.2 38 3.3 77 77 SSE 6 9 29.88 1012 10 16 0.00 0.00
6:53 am 06:53 Sunny 43 6.1 38 3.3 82 82 Calm 29.89 1012 10 16 0.00 0.00
7:53 am 07:53 Sunny 53 11.7 42 5.6 66 66 SE 7 11 29.87 1011 10 16 0.00 0.00
8:53 am 08:53 Sunny 59 15 42 5.6 54 54 S 15 24 29.85 1011 10 16 0.00 0.00
9:53 am 09:53 Sunny 64 17.8 42 5.6 45 45 S 15 24 29.83 1010 10 16 0.00 0.00
10:53 am 10:53 Sunny 68 20 43 6.1 40 40 S 17 28 29.79 1009 10 16 0.00 0.00
11:53 am 11:53 Sunny 70 21.1 44 6.7 39 39 S 21 33 29.76 1008 10 16 0.00 0.00
12:53 pm 12:53 Sunny 73 22.8 46 7.8 38 38 S 22 35 29.74 1007 10 16 0.00 0.00
1:53 pm 13:53 Sunny 75 23.9 48 8.9 39 39 SE 18 30 29.70 1006 10 16 0.00 0.00
2:53 pm 14:53 Sunny 78 25.6 51 10.6 39 39 SSE 21 33 29.68 1005 10 16 0.00 0.00
3:53 pm 15:53 Sunny 79 26.1 51 10.6 38 38 S 21 33 29.66 1005 10 16 0.00 0.00
4:53 pm 16:53 Sunny 80 26.7 51 10.6 37 37 S 23 37 29.63 1003 10 16 0.00 0.00
5:53 pm 17:53 Sunny 79 26.1 51 10.6 38 38 S 26 43 29.62 1003 10 16 0.00 0.00
6:53 pm 18:53 Sunny 78 25.6 53 11.7 42 42 SSE 15 24 29.61 1003 10 16 0.00 0.00
7:53 pm 19:53 Sunny 76 24.4 52 11.1 43 43 SSE 15 24 29.59 1002 10 16 0.00 0.00
8:53 pm 20:53 Clear 73 22.8 52 11.1 48 48 SE 12 19 29.59 1002 10 16 0.00 0.00
9:53 pm 21:53 Clear 70 21.1 52 11.1 53 53 SE 13 20 29.59 1002 10 16 0.00 0.00
10:53 pm 22:53 Clear 68 20 52 11.1 57 57 SE 10 17 29.59 1002 10 16 0.00 0.00
11:53 pm 23:53 Clear 67 19.4 52 11.1 59 59 SSE 13 20 29.58 1002 10 16 0.00 0.00

Powered by AerisWeather